Location: Unspecified
(22.6800°N, 112.2000°E)
Time: 13:25:53
(UTC+08:00)

Courier 1B Rocket - Visible Passes

Search period start: 31 July 2021 00:00
Search period end: 10 August 2021 00:00
Orbit: 920 x 1202 km, 28.2° (Epoch: 30 July)

Date Brightness Start Highest point End Pass type
(mag) Time Alt. Az. Time Alt. Az. Time Alt. Az.
31 Jul 5.3 03:17:38 58° NNE 03:17:38 58° NNE 03:23:14 10° ENE visible
31 Jul 5.6 05:04:42 10° WNW 05:10:54 52° N 05:16:59 10° E visible
01 Aug 7.0 02:20:18 21° ENE 02:20:18 21° ENE 02:22:15 10° ENE visible
01 Aug 5.5 04:06:40 29° WNW 04:09:42 51° N 04:15:47 10° ENE visible
02 Aug 5.6 03:09:22 50° NNE 03:09:22 50° NNE 03:14:42 10° ENE visible
02 Aug 5.4 04:56:06 10° WNW 05:02:26 59° N 05:08:34 10° E visible
03 Aug 7.2 02:12:08 18° ENE 02:12:08 18° ENE 02:13:40 10° ENE visible
03 Aug 5.5 03:58:30 33° NW 04:01:14 53° N 04:07:22 10° E visible
04 Aug 5.9 03:01:21 45° NE 03:01:21 45° NE 03:06:14 10° ENE visible
04 Aug 5.1 04:47:43 11° WNW 04:53:54 70° NNE 05:00:08 10° E visible
04 Aug 7.1 20:15:28 10° SSE 20:16:54 11° SSE 20:16:54 11° SSE visible
05 Aug 7.4 02:04:16 14° ENE 02:04:16 14° ENE 02:05:09 10° ENE visible
05 Aug 5.3 03:50:39 41° NW 03:52:45 60° N 03:59:00 10° E visible
05 Aug 5.0 05:39:56 10° WNW 05:46:20 70° SSW 05:52:31 10° ESE visible
05 Aug 6.7 21:03:38 10° SSW 21:07:03 22° S 21:07:03 22° S visible
06 Aug 6.1 02:53:42 38° ENE 02:53:42 38° ENE 02:57:50 10° E visible
06 Aug 4.9 04:40:06 17° WNW 04:45:18 89° NNE 04:51:37 10° ESE visible
06 Aug 6.6 20:03:38 10° S 20:08:46 19° SSE 20:10:46 17° SE visible
06 Aug 6.9 21:54:45 10° SW 21:57:13 22° SW 21:57:13 22° SW visible
07 Aug 5.1 03:43:17 63° NW 03:44:12 72° NNE 03:50:34 10° E visible
07 Aug 5.2 05:31:22 10° W 05:37:36 49° SSW 05:43:35 10° SE visible
07 Aug 5.8 20:53:51 10° SW 21:00:55 40° SSE 21:00:55 40° SSE visible
07 Aug 7.6 22:47:00 10° WSW 22:47:21 11° WSW 22:47:21 11° WSW visible
08 Aug 6.6 02:46:35 28° E 02:46:35 28° E 02:49:27 10° E visible
08 Aug 4.9 04:33:00 28° W 04:36:38 69° SSW 04:42:55 10° ESE visible
08 Aug 6.3 19:53:20 10° SSW 19:59:50 29° SSE 20:04:33 16° ESE visible
08 Aug 5.9 21:45:38 10° WSW 21:50:59 47° SW 21:50:59 47° SW visible
09 Aug 5.1 03:36:26 70° ESE 03:36:26 70° ESE 03:42:02 10° ESE visible
09 Aug 5.7 05:23:00 10° W 05:28:47 33° SSW 05:34:22 10° SSE visible
09 Aug 5.4 20:44:29 10° SW 20:52:06 56° SSE 20:54:30 41° ESE visible
09 Aug 7.0 22:38:14 10° W 22:40:55 23° W 22:40:55 23° W visible
